Regional Weather Roundup
Issued by NWS

Home | Current Version | Previous Version | Text Only | Print | Product List | Glossary On
Versions: 1 2 3 4 5 6 7 8 9 10 11 12 13 14 15 16 17 18 19 20 21 22 23 24 25 26 27 28 29 30 31 32 33 34 35 36 37 38 39 40 41 42 43 44 45 46 47 48 49 50
000
ASUS43 KDTX 151410
RWRMI
MICHIGAN HOURLY REGIONAL WEATHER ROUNDUP
NATIONAL WEATHER SERVICE DETROIT/PONTIAC MI
900 AM EST FRI DEC 15 2017

NOTE: "FAIR" INDICATES FEW OR NO CLOUDS BELOW 12,000 FEET WITH NO
SIGNIFICANT WEATHER AND/OR OBSTRUCTION TO VISIBILITY.

MIZ047>049-052>055-059>063-066>070-074>076-081>083-151500-
SOUTHEAST LOWER MICHIGAN

CITY           SKY/WX    TMP DP  RH WIND       PRES   REMARKS
ADRIAN         CLOUDY    21  14  74 SW13      29.90F WCI   9
ALMA           LGT SNOW  21  19  89 S9        29.79F WCI  11
ANN ARBOR      CLOUDY    18  12  77 S6        29.88F WCI  10
BAD AXE        LGT SNOW  18  15  88 S9        29.82F WCI   7
CARO           LGT SNOW  19  16  88 S9        29.82F WCI   9
DETROIT CITY   CLOUDY    22  12  65 SW15G24   29.89F WCI   9
DETROIT        CLOUDY    21  11  65 S5        29.90F WCI  15
FLINT          CLOUDY    20  12  71 S12       29.83F WCI   8
GROSSE ILE     CLOUDY    24  15  68 SW13      29.90F WCI  12
HILLSDALE      CLOUDY    21  14  73 SW9       29.84F WCI  11
HOWELL         CLOUDY    20  14  76 SW9G16    29.84F WCI  10

CITY           SKY/WX    TMP DP  RH WIND       PRES   REMARKS
JACKSON        CLOUDY    22  12  65 S12       29.85F WCI  10
LAMBERTVILLE   CLOUDY    23  13  68 SW7       29.91F WCI  14
LANSING        LGT SNOW  20  14  77 SW15      29.82F WCI   6
LAPEER         FLURRIES  20  13  76 SW10      29.84F WCI   8
MASON          FLURRIES  21  11  66 S5        29.83F WCI  15
MONROE         CLOUDY    23  11  61 SW8       29.90F WCI  14
MT. CLEMENS    CLOUDY    21  13  70 SW10      29.87F WCI  10
PONTIAC        CLOUDY    19  13  77 S7        29.83F WCI  10
PORT HOPE        N/A     19  14  81 VRB6      29.80F WCI  11
PORT HURON     CLOUDY    19  10  68 S7        29.88F WCI  10
TRI CITIES     SNOW      20  18  92 S14       29.81F VSB 1/2 WCI   7
MIDLAND        LGT SNOW  21  18  88 S8        29.79F WCI  11
TROY           CLOUDY    21  12  68 SW9       29.89F WCI  11
SAGINAW HB     LGT SNOW  21  18  86 S13       29.81F WCI   9
$$
MIZ043>046-050>051-056>058-064>065-071>073-077>080-151500-
SOUTHWEST LOWER MICHIGAN

CITY           SKY/WX    TMP DP  RH WIND       PRES   REMARKS
BATTLE CREEK   LGT SNOW  20  14  77 SW17      29.83F WCI   5
BENTON HARBOR  LGT SNOW  27  19  72 W26G32    29.87F WCI  12
BIG RAPIDS     SNOW      21  19  92 W5        29.75S VSB 1/4 WCI  15
COLDWATER      CLOUDY    22  15  74 SW13      29.86F WCI  10
HOLLAND        LGT SNOW  27  19  72 W14       29.82F WCI  16
GRAND RAPIDS   HVY SNOW  22  19  89 SW14      29.80F VSB 1/4 WCI   9
IONIA          LGT SNOW  22  17  81 S13       29.79F WCI  10
KALAMAZOO      LGT SNOW  22  14  71 SW16      29.85F WCI   8
LUDINGTON      CLOUDY    24  14  67 W15G22    29.79S WCI  11
MARSHALL       LGT SNOW  20  13  73 SW9       29.84F WCI  10
MOUNT PLEASANT LGT SNOW  22  18  85 S7        29.76F WCI  13
MUSKEGON       LGT SNOW  27  21  78 W14G26    29.81S VSB 3/4 WCI  16
SOUTH HAVEN    CLOUDY    28  21  74 W15G22    29.85S WCI  17
$$
MIZ016>042-151500-
NORTHERN LOWER MICHIGAN

CITY           SKY/WX    TMP DP  RH WIND       PRES   REMARKS
ALPENA         LGT SNOW  20  17  88 S10       29.74F FOG     WCI   9
BEAVER ISLAND  LGT SNOW  23  19  83 W8        29.71S WCI  14
BELLAIRE       LGT SNOW  23  22  96 SW6       29.73F WCI  16
CADILLAC       LGT SNOW  19  17  93 SW5       29.70S VSB 1   WCI  12
CHARLEVOIX     SNOW      25  24  99 W12       29.73S VSB 1/4 WCI  14
FRANKFORT      CLOUDY    25  15  66 W16       29.75S WCI  12
GAYLORD        LGT SNOW  18  14  84 S9        29.67F VSB 3/4 WCI   7
GRAYLING       LGT SNOW  19  15  84 S5        29.71F VSB 1   WCI  12
HARBOR SPRINGS LGT SNOW  22  20  94 S5        29.68F VSB 1   WCI  15
HOUGHTON LAKE  LGT SNOW  18  15  88 SW8       29.72S VSB 1   WCI   8
MANISTEE       FLURRIES  24  17  74 W18       29.76F WCI  10
OSCODA         LGT SNOW  20  16  84 SW8       29.77F WCI  11
PELLSTON       LGT SNOW  21  19  92 W6        29.69S FOG     WCI  13
ROGERS CITY    LGT SNOW  20  17  86 S12       29.73F WCI   8
TRAVERSE CITY  LGT SNOW  23  20  88 SW3       29.73F VSB 1
$$
MIZ007>008-015-151500-
EASTERN UPPER MICHIGAN

CITY           SKY/WX    TMP DP  RH WIND       PRES   REMARKS
KINROSS        FLURRIES  15  12  88 CALM      29.69F
MACKINAC ISLAN LGT SNOW  22  19  87 N5        29.68F WCI  16
NEWBERRY       CLOUDY    14  14  97 SW6       29.67F WCI   5
S. S. MARIE    CLOUDY    16  13  88 E3        29.69F
MUNISING         N/A     20  18  92 W9        29.69F WCI   9
$$
MIZ004>006-011>014-085-151500-
CENTRAL UPPER MICHIGAN

CITY           SKY/WX    TMP DP  RH WIND       PRES   REMARKS
MANISTIQUE     FLURRIES  14  10  82 W7        29.70F WCI   4
ESCANABA       CLEAR     14   9  80 W9        29.75S WCI   2
MENOMINEE      CLOUDY    15  10  80 W8        29.80S WCI   4
SAWYER-GWINN   FLURRIES  16  12  86 W10       29.69F WCI   3
$$
MIZ001>003-009>011-084-151500-
WESTERN UPPER MICHIGAN

CITY           SKY/WX    TMP DP  RH WIND       PRES   REMARKS
IRON MOUNTAIN  CLOUDY   N/A N/A N/A MISG      29.74R
HOUGHTON       LGT SNOW  18  10  71 NW13G21   29.71F WCI   5
COPPER HARBOR    N/A     22  15  75 NE23      29.72S WCI   6
IRONWOOD       LGT SNOW  12   9  87 W13       29.79S FOG     WCI  -3
$$

ABBREVIATIONS USED IN REMARKS
   TC - TEMPERATURE IN CELSIUS
  WCI - WIND CHILL INDEX
   HX - HEAT INDEX
  VSB - VISIBILITY





USA.gov is the U.S. government's official web portal to all federal, state and local government web resources and services.